sat.trackr.live / text

‹ back to catalog

KUIPER-00123

NORAD 65952 · 2025-228F

PAYLOAD ACTIVE UNKNOWN

§ Identity

Operator
Country
US
Launch date
2025-10-14
Launch site
AFETR
Launch vehicle
Mass (kg)
RCS (m²)

External: N2YO · Heavens-Above · Gunter

§ Orbital elements

Epoch: 2026-09-20T22:06:47.818656Z

Period
97.30 min
Inclination
51.8996°
Eccentricity
0.0000832
Mean motion
14.79953251 rev/d
Perigee alt
628.9 km
Apogee alt
630.1 km
Semi-major
7,007.6 km
B*
5.0452e-4
RAAN
219.7441°
Arg perigee
47.5331°
Mean anomaly
312.5702°
Rev number
5,210

§ Raw data

KUIPER-001231 65952U 25228F   26263.92138679  .00003629  00000+0  50452-3 0  99982 65952  51.8996 219.7441 0000832  47.5331 312.5702 14.79953251 52105

JSON: /api/v1/satellites/65952 · /tle

For live sub-satellite position, see the globe view (requires WebGL).

§ Visibility from observer

Set your observer location to see the next 7 days of passes ≥ 10°. The values pass through the URL so the page stays shareable.

No JS? Fill the form by hand. The geolocation button needs JavaScript.